Regional Weather Roundup
Issued by NWS Charleston, SC

Current Version | Previous Version | Graphics & Text | Print | Product List | Glossary On
Versions: 1 2 3 4 5 6 7 8 9 10 11 12 13 14 15 16 17 18 19 20 21 22 23 24 25 26 27 28 29 30 31 32 33 34 35 36 37 38 39 40 41 42 43 44 45 46 47 48 49 50
000
ASUS42 KCHS 192210
RWRCHS

REGIONAL WEATHER ROUNDUP
NATIONAL WEATHER SERVICE CHARLESTON SC
600 PM EDT FRI SEP 19 2014

NOTE: "FAIR" INDICATES FEW OR NO CLOUDS BELOW 12,000 FEET WITH NO
SIGNIFICANT WEATHER AND/OR OBSTRUCTIONS TO VISIBILITY.

NOT ALL STATIONS ARE QUALITY CONTROLLED BY THE NATIONAL
WEATHER SERVICE. USE DATA WITH CAUTION...ESPECIALLY
DEWPOINT OBSERVATIONS.

SCZ027-030-031-034>040-042>050-192300-
...SOUTH CAROLINA...

CITY           SKY/WX    TMP DP  RH WIND       PRES   REMARKS
N CHARLESTON   LGT RAIN  72  68  87 NE8       30.06F
WATERFRONT PRK   N/A     77 N/A N/A N12         N/A
FORT JOHNSON   NOT AVBL
MOUNT PLEASANT MOCLDY    73  70  88 CALM      30.07S
JOHNS ISLAND   MOCLDY    75  75 100 CALM      30.06S
PINOPOLIS        N/A     75  70  83 CALM      30.01R
MONCKS CORNER    N/A     73  72  94 CALM      30.08F
SUMMERVILLE    NOT AVBL
BEAUFORT MCAS  CLOUDY    73  69  87 W13       30.06R
BEAUFORT ARPT  FAIR      79  70  73 E14G21    30.04R
HILTON HEAD IS NOT AVBL
GEORGETOWN     NOT AVBL
WALTERBORO     MOCLDY    72  72 100 NE9       30.08S
ORANGEBURG     CLOUDY    72  66  81 VRB7      30.11R
BARNWELL       FAIR      73  70  88 NE7       30.09R
AIKEN          CLOUDY    77  72  83 E3        30.13R
MANNING        MOCLDY    73  73 100 CALM      30.10S
KINGSTREE      NOT AVBL
COLUMBIA       PTSUNNY   78  65  63 SE12G33   30.09R
SUMTER         LGT RAIN  70  64  83 E6        30.10R
FLORENCE       PTSUNNY   76  65  68 SE10      30.12R
MYRTLE BEACH   MOSUNNY   81  63  54 E12G17    30.10R
N MYRTLE BEACH MOSUNNY   79  67  66 NE14      30.10R

$$

GAZ063-065-086>088-099>101-113>116-118-119-134-136>141-150-192300-
...GEORGIA...

CITY           SKY/WX    TMP DP  RH WIND       PRES   REMARKS
SAVANNAH ARPT  CLOUDY    80  69  69 E12       30.03R
HUNTER AAF     CLOUDY    80  71  74 E13       30.00R
FORT STEWART   CLOUDY    79  71  76 NE7       30.00S
STATESBORO     NOT AVBL
SYLVANIA         N/A     78  76  92 NE3       30.07R
CLAXTON        MOCLDY    77  77 100 NE3       30.03R
THOMSON        PTSUNNY   80  73  80 NE9G16    30.11S
AUGUSTA-BUSH   PTSUNNY   80  66  62 E17       30.06R
AUGUSTA-DANIEL SUNNY     81  65  58 E14       30.08R
SWAINSBORO     FAIR      84  72  65 NE8G17    30.04R
VIDALIA        PTSUNNY   81  70  69 NE9       30.03R
ALMA           CLOUDY    78  68  71 E5        30.00S
WAYCROSS       CLOUDY    76  74  92 SE5       30.01R
JESUP          FAIR      79  72  78 E5        30.01S
BRUNSWICK      CLOUDY    72  70  94 CALM      30.02R
SAINT SIMONS   CLOUDY    77  69  76 CALM      30.00R

$$

SCZ027-028-034-036>038-045-046-048>050-GAZ119-141-192300-
...LAKE AND SUPPLEMENTAL COASTAL OBSERVATIONS...

STATION/POSITION TIME  TEMP    WIND        PRES    WAVE   SWELL
                       AIR SEA DIR/SP/G            HT/PER HT/PER/DIR
                 (UTC) (F)     (DEG/KT/KT) (MB)    (FT/S) (FT/S/D)
UPR LAKE MARION  NOT AVBL
WINYAH BAY       2100   80      80/ 13     1018.0S
LAKE MURRAY      2100   78      30/  5/  8 1018.3S
ACE BASIN NERRS  2100   81      90/  6     1018.0R
FORT PULASKI     2200   79      60/ 17/ 19 1016.7S
SAPELO ISLAND    2100   79      70/  7     1016.0S

$$

ANZ835-935-AMZ111-154-330-350-352-354-374-450-454-472-192300-
...C-MAN AND BUOY OBSERVATIONS...

STATION/POSITION TIME  TEMP    WIND        PRES    WAVE   SWELL
                       AIR SEA DIR/SP/G            HT/PER HT/PER/DIR
                 (UTC) (F)     (DEG/KT/KT) (MB)    (FT/S) (FT/S/D)
FOLLY BEACH CMAN 2100   79      90/ 18/ 21 1018.1S
BUOY 41004       2200   79 82   90/ 17/ 19 1016.8R   6/ 6   2/10
BUOY 41008       2100   80 84   70/ 17/ 19 1015.2F   3/ 4   2/ 90/ 8
5E ST. MARYS GA  2200      84                N/A     3/10   2/ 90/11
FRYING PAN BUOY  NOT AVBL
BUOY 41025       2200   76      20/ 19/ 25 1020.8R   6/ 6   2/ 60/ 9
CAPE LOOKOUT NC  2100   75      40/ 22/ 24 1020.7R
BUOY 41002       2047   79 82   70/ 14/ 19 1017.5F   4/ 8   2/ 80/ 8
BUOY 41010       2200   83 85   70/ 12/ 14 1013.9S   3/10   2/ 30/10
BUOY 41012       NOT AVBL
ST AUGUSTINE FL  2200   79      30/ 11/ 13 1015.4R
CAPERS NEARSHORE 2100   79     110/ 14/ 17   N/A
FRIPP NEARSHORE  NOT AVBL


$$



USA.gov is the U.S. government's official web portal to all federal, state and local government web resources and services.